TimeEET,TemperatureF,Dew PointF,Humidity,Sea Level PressureIn,VisibilityMPH,Wind Direction,Wind SpeedMPH,Gust SpeedMPH,PrecipitationIn,Events,Conditions,WindDirDegrees,DateUTC
12:50 AM,44.6,42.8,93,30.01,6.2,NNW,4.6,-,N/A,,Partly Cloudy,330,2013-02-20 22:50:00
1:50 AM,44.6,41.0,87,30.01,6.2,NW,4.6,-,N/A,,Partly Cloudy,320,2013-02-20 23:50:00
2:50 AM,46.4,42.8,87,30.01,6.2,Calm,Calm,-,N/A,,Scattered Clouds,0,2013-02-21 00:50:00
3:50 AM,46.4,42.8,87,29.98,6.2,Calm,Calm,-,N/A,,Scattered Clouds,0,2013-02-21 01:50:00
4:50 AM,46.4,41.0,81,29.95,6.2,Calm,Calm,-,N/A,,Scattered Clouds,0,2013-02-21 02:50:00
5:20 AM,46.4,41.0,81,29.92,6.2,NNW,4.6,-,N/A,,Mostly Cloudy,330,2013-02-21 03:20:00
5:50 AM,46.4,41.0,81,29.92,6.2,Calm,Calm,-,N/A,,Mostly Cloudy,0,2013-02-21 03:50:00
6:20 AM,46.4,41.0,81,29.92,6.2,NNW,4.6,-,N/A,,Mostly Cloudy,340,2013-02-21 04:20:00
6:50 AM,48.2,41.0,76,29.89,6.2,NNW,4.6,-,N/A,,Mostly Cloudy,330,2013-02-21 04:50:00
7:20 AM,48.2,41.0,76,29.89,6.2,NNW,5.8,-,N/A,,Overcast,340,2013-02-21 05:20:00
7:50 AM,48.2,39.2,71,29.95,5.6,NNW,4.6,-,N/A,,Overcast,340,2013-02-21 05:50:00
8:20 AM,48.2,41.0,76,29.98,5.6,Calm,Calm,-,N/A,,Overcast,0,2013-02-21 06:20:00
8:50 AM,50.0,41.0,71,29.95,5.6,NNE,5.8,-,N/A,,Overcast,20,2013-02-21 06:50:00
9:20 AM,50.0,41.0,71,29.92,5.6,North,4.6,-,N/A,,Overcast,350,2013-02-21 07:20:00
9:50 AM,50.0,41.0,71,29.89,5.6,North,6.9,-,N/A,,Overcast,350,2013-02-21 07:50:00
10:20 AM,51.8,41.0,67,29.89,5.6,North,6.9,-,N/A,,Overcast,350,2013-02-21 08:20:00
10:50 AM,53.6,42.8,67,29.89,5.6,Calm,Calm,-,N/A,,Overcast,0,2013-02-21 08:50:00
11:20 AM,53.6,42.8,67,29.83,5.6,North,5.8,-,N/A,,Overcast,10,2013-02-21 09:20:00
11:50 AM,55.4,44.6,67,29.86,5.6,Calm,Calm,-,N/A,,Overcast,0,2013-02-21 09:50:00
12:20 PM,57.2,44.6,63,29.86,5.6,Calm,Calm,-,N/A,,Overcast,0,2013-02-21 10:20:00
12:50 PM,57.2,44.6,63,29.83,5.6,Calm,Calm,-,N/A,,Overcast,0,2013-02-21 10:50:00
1:20 PM,57.2,44.6,63,29.83,5.6,Calm,Calm,-,N/A,,Overcast,0,2013-02-21 11:20:00
1:50 PM,57.2,44.6,63,29.80,5.6,Calm,Calm,-,N/A,,Overcast,0,2013-02-21 11:50:00
2:20 PM,57.2,46.4,67,29.77,5.6,Calm,Calm,-,N/A,,Overcast,0,2013-02-21 12:20:00
2:50 PM,57.2,46.4,67,29.74,5.6,Calm,Calm,-,N/A,,Overcast,0,2013-02-21 12:50:00
3:20 PM,57.2,44.6,63,29.74,5.6,NNW,4.6,-,N/A,,Overcast,330,2013-02-21 13:20:00
3:50 PM,57.2,46.4,67,29.68,5.6,NNE,5.8,-,N/A,,Overcast,20,2013-02-21 13:50:00
4:20 PM,55.4,48.2,77,29.68,5.6,Calm,Calm,-,N/A,,Overcast,0,2013-02-21 14:20:00
4:50 PM,57.2,46.4,67,29.65,5.6,Calm,Calm,-,N/A,,Smoke,0,2013-02-21 14:50:00
5:20 PM,55.4,46.4,72,29.65,5.6,Calm,Calm,-,N/A,,Smoke,0,2013-02-21 15:20:00
5:50 PM,57.2,46.4,67,29.62,5.6,North,4.6,-,N/A,,Smoke,360,2013-02-21 15:50:00
6:20 PM,57.2,44.6,63,29.59,5.6,Calm,Calm,-,N/A,,Smoke,0,2013-02-21 16:20:00
6:50 PM,57.2,42.8,59,29.59,6.2,WNW,6.9,-,N/A,,Overcast,300,2013-02-21 16:50:00
7:20 PM,57.2,42.8,59,29.62,6.2,Calm,Calm,-,N/A,,Overcast,0,2013-02-21 17:20:00
7:50 PM,55.4,44.6,67,29.59,6.2,East,5.8,-,N/A,,Overcast,90,2013-02-21 17:50:00
8:20 PM,55.4,44.6,67,29.59,6.2,Calm,Calm,-,N/A,,Overcast,0,2013-02-21 18:20:00
8:50 PM,66.2,39.2,37,29.59,6.2,SSE,17.3,32.2,N/A,,Overcast,150,2013-02-21 18:50:00
9:50 PM,66.2,35.6,32,29.56,6.2,SE,13.8,25.3,N/A,,Overcast,140,2013-02-21 19:50:00
10:50 PM,66.2,35.6,32,29.56,6.2,SSE,12.7,24.2,N/A,,Overcast,150,2013-02-21 20:50:00
11:50 PM,66.2,39.2,37,29.56,6.2,SSE,15.0,28.8,N/A,,Overcast,160,2013-02-21 21:50:00